Location: Fort Wayne
(41.1310°N, 85.1290°W)
Time: 13:11:35
(UTC-04:00)

COSMOS 2406 - Visible Passes

Search period start: 01 July 2016 00:00
Search period end: 11 July 2016 00:00
Orbit: 842 x 866 km, 71.0° (Epoch: 30 June)

Date Brightness Start Highest point End Pass type
(mag) Time Alt. Az. Time Alt. Az. Time Alt. Az.
01 Jul 5.8 00:56:48 10° NNE 00:59:02 12° NE 01:01:16 10° ENE visible
01 Jul 3.4 02:38:45 10° NNW 02:44:31 68° ENE 02:46:47 37° SE visible
01 Jul 4.7 04:24:38 10° WNW 04:28:11 17° W 04:28:48 17° WSW visible
02 Jul 5.7 00:45:30 10° NNE 00:47:50 12° NE 00:50:10 10° ENE visible
02 Jul 3.4 02:27:31 10° NNW 02:33:18 69° ENE 02:35:08 43° SE visible
02 Jul 4.8 04:13:28 10° WNW 04:16:57 17° W 04:17:10 17° W visible
03 Jul 5.7 00:34:13 10° NNE 00:36:38 13° NE 00:39:03 10° ENE visible
03 Jul 3.4 02:16:17 10° NNW 02:22:05 70° ENE 02:23:34 49° SE visible
03 Jul 4.9 04:02:18 10° WNW 04:05:36 16° W 04:05:36 16° W visible
04 Jul 5.7 00:22:56 10° NNE 00:25:26 13° NE 00:27:56 10° ENE visible
04 Jul 3.3 02:05:04 10° NNW 02:10:51 71° ENE 02:12:05 54° SE visible
04 Jul 4.9 03:51:09 10° WNW 03:54:07 16° W 03:54:07 16° W visible
05 Jul 5.6 00:11:39 10° NNE 00:14:14 13° NE 00:16:48 10° ENE visible
05 Jul 3.3 01:53:51 10° NNW 01:59:38 73° ENE 02:00:39 58° SE visible
05 Jul 5.0 03:39:58 10° WNW 03:42:42 15° W 03:42:42 15° W visible
06 Jul 5.6 00:00:22 10° NNE 00:03:02 13° NE 00:05:40 10° ENE visible
06 Jul 3.2 01:42:37 10° NNW 01:48:24 74° ENE 01:49:17 62° ESE visible
06 Jul 5.1 03:28:49 10° WNW 03:31:20 15° W 03:31:20 15° W visible
06 Jul 5.5 23:49:06 10° NNE 23:51:49 13° NE 23:54:32 10° ENE visible
07 Jul 3.2 01:31:24 10° NNW 01:37:11 75° ENE 01:37:57 65° ESE visible
07 Jul 5.1 03:17:40 10° WNW 03:20:00 15° W 03:20:00 15° W visible
07 Jul 5.5 23:37:50 10° NNE 23:40:37 14° NE 23:43:24 10° ENE visible
08 Jul 3.2 01:20:10 10° NNW 01:25:58 76° ENE 01:26:40 67° ESE visible
08 Jul 5.2 03:06:31 10° WNW 03:08:44 14° W 03:08:44 14° W visible
08 Jul 5.5 23:26:33 10° NNE 23:29:25 14° NE 23:32:16 10° ENE visible
09 Jul 3.1 01:08:57 10° NNW 01:14:45 78° ENE 01:15:26 68° ESE visible
09 Jul 5.2 02:55:22 10° WNW 02:57:29 14° W 02:57:29 14° W visible
09 Jul 5.4 23:15:17 10° NNE 23:18:13 14° NE 23:21:08 10° ENE visible
10 Jul 3.1 00:57:43 10° NNW 01:03:32 79° ENE 01:04:14 68° SE visible
10 Jul 5.3 02:44:12 10° WNW 02:46:17 14° W 02:46:17 14° W visible
10 Jul 5.4 23:04:01 10° NNE 23:07:00 14° NE 23:09:59 10° ENE visible
